Regional Weather Roundup
Issued by NWS

Current Version | Previous Version | Text Only | Print | Product List | Glossary On
Versions: 1 2 3 4 5 6 7 8 9 10 11 12 13 14 15 16 17 18 19 20 21 22 23 24 25 26 27 28 29 30 31 32 33 34 35 36 37 38 39 40 41 42 43 44 45 46 47 48 49 50
000
ASUS45 KREV 061810
RWRNV
NEVADA REGIONAL WEATHER ROUNDUP
NATIONAL WEATHER SERVICE RENO NV
1100 AM PDT MON JUL 06 2015

NOTE: "FAIR" INDICATES FEW OR NO CLOUDS BELOW 12,000 FEET WITH NO
SIGNIFICANT WEATHER AND/OR OBSTRUCTIONS TO VISIBILITY.

NVZ001-003-004-061900-
WESTERN NEVADA

CITY           SKY/WX    TMP DP  RH WIND       PRES   REMARKS
RENO           MOSUNNY   83  45  26 CALM      30.15F
6HR MIN TEMP:  63; 6HR MAX TEMP:  83;

CARSON CITY    FAIR      81  45  28 E5        30.18F
MINDEN         FAIR      81  46  30 W7        30.17F
SLIDE MTN        N/A     64  43  45 CALM        N/A
PYRAMID LAKE     N/A     75 N/A N/A N5          N/A
FALLON         MOSUNNY   83  48  29 NW6       30.13F
6HR MIN TEMP:  60; 6HR MAX TEMP:  83;

LOVELOCK       SUNNY     79  54  41 VRB3      30.14F
6HR MIN TEMP:  59; 6HR MAX TEMP:  79;

HAWTHORNE      SUNNY     79  48  34 CALM      30.16F
$$

NVZ002-CAZ072-073-061900-
NORTHERN AND CENTRAL SIERRA

CITY           SKY/WX    TMP DP  RH WIND       PRES   REMARKS
S. LAKE TAHOE  SUNNY     76  48  37 NE10      30.27S
6HR MIN TEMP:  49; 6HR MAX TEMP:  76;

TRUCKEE        MOSUNNY   75  52  43 CALM      30.26F
SQUAW VLY 8000 NOT AVBL
SUSANVILLE     SUNNY     82  50  32 NE6       30.15F
BLUE CANYON    SUNNY     72  51  47 VRB6      30.26R
MAMMOTH LAKES  FAIR      75  37  25 E7        30.33S
BRIDGEPORT     FAIR      78  35  21 S5        30.26F
$$

NVZ030-031-036-061900-
NORTHERN NEVADA

CITY           SKY/WX    TMP DP  RH WIND       PRES   REMARKS
ELKO           SUNNY     78  49  35 CALM      30.21F
6HR MIN TEMP:  55; 6HR MAX TEMP:  80;

WINNEMUCCA     SUNNY     83  46  27 VRB3      30.16F
6HR MIN TEMP:  56; 6HR MAX TEMP:  83;

WENDOVER       CLOUDY    82  46  28 NW9       30.14S
$$

NVZ035-037-061900-
CENTRAL NEVADA

CITY           SKY/WX    TMP DP  RH WIND       PRES   REMARKS
ELY            MOSUNNY   81  38  21 CALM      30.26F
6HR MIN TEMP:  60; 6HR MAX TEMP:  81;

EUREKA           N/A     78  41  26 E8        30.26F
6HR MIN TEMP:  52; 6HR MAX TEMP:  78;

$$

NVZ013-014-061900-
SOUTH CENTRAL NEVADA

CITY           SKY/WX    TMP DP  RH WIND       PRES   REMARKS
TONOPAH        SUNNY     83  37  19 MISG      30.22F
6HR MIN TEMP:  60; 6HR MAX TEMP:  83;

$$

NVZ017-020-022-061900-
SOUTHERN NEVADA

CITY           SKY/WX    TMP DP  RH WIND       PRES   REMARKS
LAS VEGAS      PTSUNNY   91  55  29 VRB3      29.98F
6HR MIN TEMP:  84; 6HR MAX TEMP:  91;

N. LAS VEGAS   PTSUNNY   88  57  34 SE6       30.02S
6HR MIN TEMP:  83; 6HR MAX TEMP:  88; 6HR PCP: TRACE;

NELLIS AFB     CLOUDY    89  59  37 E7        29.99F
6HR MIN TEMP:  85; 6HR MAX TEMP:  89;

HENDERSON      PTSUNNY   88  56  33 CALM      30.05F
6HR MIN TEMP:  81; 6HR MAX TEMP:  88;

MERCURY        MOSUNNY   86  51  29 SW9       30.08S
6HR MIN TEMP:  67; 6HR MAX TEMP:  88;

$$



USA.gov is the U.S. government's official web portal to all federal, state and local government web resources and services.